| time (UTC) | temp C | wind direction | speed KPH | gust KPH | rain 1hr cm | rain 24hr cm | rain mn cm | humidity % | barometer mb |
| 20260902062851 | 15 | 79 | 0.0 | 0.0 | 0.00 | 0.28 | 0.00 | 62 | 1020.3 |
| 20260902061850 | 15 | 78 | 0.0 | 0.0 | 0.00 | 0.28 | 0.00 | 62 | 1020.3 |
| 20260902060849 | 15 | 63 | 0.0 | 0.0 | 0.00 | 0.28 | 0.00 | 63 | 1020.4 |
| 20260902055849 | 15 | 63 | 0.0 | 1.6 | 0.00 | 0.28 | 0.00 | 63 | 1020.5 |
| 20260902054848 | 15 | 349 | 0.0 | 0.0 | 0.00 | 0.28 | 0.00 | 63 | 1020.4 |
| 20260902053844 | 15 | 328 | 0.0 | 1.6 | 0.00 | 0.28 | 0.00 | 63 | 1020.3 |
| 20260902052843 | 15 | 328 | 0.0 | 0.0 | 0.00 | 0.28 | 0.00 | 63 | 1020.1 |
| 20260902051845 | 15 | 328 | 0.0 | 0.0 | 0.00 | 0.28 | 0.00 | 63 | 1020.0 |
| 20260902050850 | 15 | 328 | 0.0 | 0.0 | 0.00 | 0.28 | 0.00 | 63 | 1019.7 |
| 20260902050843 | 15 | 328 | 0.0 | 0.0 | 0.00 | 0.28 | 0.00 | 63 | 1019.8 |
| 20260902045344 | 15 | 328 | 0.0 | 0.0 | 0.00 | 0.28 | 0.00 | 63 | 1019.6 |
| 20260902043843 | 15 | 305 | 0.0 | 0.0 | 0.00 | 0.28 | 0.00 | 63 | 1019.7 |
| 20260902042845 | 15 | 306 | 0.0 | 0.0 | 0.00 | 0.28 | 0.00 | 63 | 1019.5 |
| 20260902041842 | 15 | 51 | 0.0 | 0.0 | 0.00 | 0.28 | 0.00 | 63 | 1019.2 |
| 20260902040841 | 15 | 51 | 0.0 | 0.0 | 0.00 | 0.28 | 0.00 | 63 | 1019.4 |
| 20260902035840 | 15 | 51 | 0.0 | 1.6 | 0.00 | 0.28 | 0.28 | 63 | 1019.4 |
| 20260902034841 | 15 | 65 | 0.0 | 0.0 | 0.00 | 0.28 | 0.28 | 63 | 1019.4 |
| 20260902033840 | 15 | 65 | 0.0 | 0.0 | 0.00 | 0.28 | 0.28 | 64 | 1019.5 |
| 20260902032852 | 15 | 65 | 0.0 | 0.0 | 0.00 | 0.28 | 0.28 | 64 | 1019.4 |
| 20260902032339 | 15 | 67 | 0.0 | 0.0 | 0.00 | 0.28 | 0.28 | 63 | 1019.3 |
| 20260902030839 | 15 | 66 | 0.0 | 0.0 | 0.00 | 0.28 | 0.28 | 64 | 1019.4 |
| 20260902025839 | 15 | 67 | 0.0 | 0.0 | 0.00 | 0.28 | 0.28 | 64 | 1019.4 |
| 20260902024838 | 15 | 67 | 0.0 | 0.0 | 0.00 | 0.28 | 0.28 | 64 | 1019.3 |
| 20260902023837 | 15 | 67 | 0.0 | 0.0 | 0.00 | 0.28 | 0.28 | 64 | 1019.3 |
| 20260902022837 | 15 | 67 | 0.0 | 0.0 | 0.00 | 0.28 | 0.28 | 64 | 1019.1 |
| 20260902021837 | 15 | 60 | 0.0 | 0.0 | 0.00 | 0.28 | 0.28 | 64 | 1019.2 |
| 20260902020837 | 15 | 60 | 0.0 | 0.0 | 0.00 | 0.28 | 0.28 | 64 | 1018.9 |
| 20260902015837 | 15 | 60 | 0.0 | 0.0 | 0.00 | 0.28 | 0.28 | 64 | 1018.7 |
| 20260902014837 | 15 | 49 | 0.0 | 1.6 | 0.00 | 0.28 | 0.28 | 64 | 1018.8 |
| 20260902014340 | 15 | 49 | 0.0 | 0.0 | 0.00 | 0.28 | 0.28 | 65 | 1019.1 |
| 20260902012836 | 15 | 50 | 0.0 | 0.0 | 0.00 | 0.28 | 0.28 | 64 | 1019.1 |
| 20260902011833 | 15 | 48 | 0.0 | 0.0 | 0.00 | 0.28 | 0.28 | 65 | 1019.1 |
| 20260902010844 | 16 | 49 | 0.0 | 0.0 | 0.00 | 0.28 | 0.28 | 64 | 1018.7 |
| 20260902005831 | 16 | 50 | 0.0 | 0.0 | 0.00 | 0.28 | 0.28 | 64 | 1018.9 |
| 20260902004832 | 16 | 46 | 0.0 | 0.0 | 0.00 | 0.28 | 0.28 | 64 | 1019.1 |
| 20260902004331 | 16 | 46 | 0.0 | 0.0 | 0.00 | 0.28 | 0.28 | 64 | 1019.1 |
| 20260902002831 | 16 | 49 | 0.0 | 1.6 | 0.00 | 0.28 | 0.28 | 64 | 1019.1 |
| 20260902002334 | 16 | 54 | 0.0 | 4.8 | 0.00 | 0.28 | 0.28 | 63 | 1019.1 |
| 20260902001333 | 16 | 57 | 0.0 | 3.2 | 0.00 | 0.28 | 0.28 | 62 | 1019.0 |
| 20260901235832 | 16 | 75 | 0.0 | 1.6 | 0.00 | 0.28 | 0.28 | 62 | 1018.8 |
| 20260901234828 | 16 | 76 | 0.0 | 0.0 | 0.00 | 0.28 | 0.28 | 62 | 1018.7 |
| 20260901233825 | 17 | 56 | 0.0 | 1.6 | 0.00 | 0.28 | 0.28 | 62 | 1018.5 |
| 20260901232825 | 17 | 52 | 0.0 | 1.6 | 0.00 | 0.28 | 0.28 | 62 | 1018.5 |
| 20260901231825 | 17 | 52 | 0.0 | 1.6 | 0.00 | 0.28 | 0.28 | 62 | 1018.6 |
| 20260901230826 | 17 | 58 | 0.0 | 1.6 | 0.00 | 0.28 | 0.28 | 63 | 1018.5 |
| 20260901225825 | 17 | 56 | 0.0 | 1.6 | 0.00 | 0.28 | 0.28 | 63 | 1018.5 |
| 20260901224825 | 17 | 60 | 0.0 | 1.6 | 0.03 | 0.28 | 0.28 | 63 | 1018.4 |
| 20260901223826 | 17 | 228 | 0.0 | 1.6 | 0.03 | 0.28 | 0.28 | 63 | 1018.5 |
| 20260901222826 | 17 | 228 | 0.0 | 0.0 | 0.03 | 0.28 | 0.28 | 63 | 1018.6 |
| 20260901221822 | 17 | 228 | 0.0 | 0.0 | 0.03 | 0.28 | 0.28 | 64 | 1018.7 |
| 20260901220819 | 17 | 228 | 0.0 | 0.0 | 0.03 | 0.28 | 0.28 | 64 | 1018.9 |
| 20260901220321 | 17 | 228 | 0.0 | 0.0 | 0.03 | 0.28 | 0.28 | 63 | 1019.0 |
| 20260901214819 | 17 | 228 | 0.0 | 0.0 | 0.00 | 0.25 | 0.25 | 64 | 1018.8 |
| 20260901213819 | 17 | 228 | 0.0 | 0.0 | 0.00 | 0.25 | 0.25 | 64 | 1019.1 |
| 20260901212818 | 17 | 228 | 0.0 | 0.0 | 0.00 | 0.25 | 0.25 | 64 | 1018.8 |
| 20260901211819 | 17 | 228 | 0.0 | 1.6 | 0.00 | 0.25 | 0.25 | 64 | 1018.6 |
| 20260901211319 | 17 | 206 | 0.0 | 0.0 | 0.00 | 0.25 | 0.25 | 64 | 1018.5 |
| 20260901205817 | 17 | 206 | 0.0 | 0.0 | 0.00 | 0.25 | 0.25 | 64 | 1018.3 |
| 20260901204813 | 17 | 205 | 0.0 | 0.0 | 0.00 | 0.25 | 0.25 | 64 | 1018.2 |
| 20260901203812 | 17 | 206 | 0.0 | 0.0 | 0.00 | 0.25 | 0.25 | 64 | 1018.2 |
| 20260901202812 | 17 | 183 | 0.0 | 0.0 | 0.03 | 0.25 | 0.25 | 64 | 1018.3 |
| 20260901202311 | 17 | 183 | 0.0 | 0.0 | 0.03 | 0.25 | 0.25 | 64 | 1018.2 |
| 20260901200810 | 17 | 183 | 0.0 | 0.0 | 0.03 | 0.25 | 0.25 | 65 | 1018.1 |
| 20260901200311 | 17 | 183 | 0.0 | 0.0 | 0.03 | 0.25 | 0.25 | 65 | 1018.0 |
| 20260901194809 | 17 | 183 | 0.0 | 0.0 | 0.03 | 0.25 | 0.25 | 65 | 1018.2 |
| 20260901193809 | 17 | 183 | 0.0 | 0.0 | 0.05 | 0.25 | 0.25 | 66 | 1018.1 |
| 20260901192810 | 17 | 183 | 0.0 | 1.6 | 0.08 | 0.23 | 0.23 | 66 | 1018.0 |
| 20260901192306 | 17 | 242 | 0.0 | 0.0 | 0.20 | 0.23 | 0.23 | 65 | 1018.0 |
| 20260901190805 | 17 | 242 | 0.0 | 0.0 | 0.20 | 0.23 | 0.23 | 65 | 1017.9 |
| 20260901185804 | 17 | 198 | 0.0 | 0.0 | 0.20 | 0.23 | 0.23 | 66 | 1017.8 |
| 20260901184803 | 17 | 198 | 0.0 | 1.6 | 0.20 | 0.23 | 0.23 | 67 | 1017.7 |
| 20260901184303 | 17 | 198 | 0.0 | 1.6 | 0.18 | 0.20 | 0.20 | 69 | 1017.8 |
| 20260901182806 | 17 | 198 | 0.0 | 1.6 | 0.13 | 0.15 | 0.15 | 72 | 1017.9 |
| 20260901181804 | 18 | 141 | 0.0 | 1.6 | 0.00 | 0.03 | 0.03 | 74 | 1017.9 |
| 20260901180803 | 18 | 214 | 0.0 | 0.0 | 0.00 | 0.03 | 0.03 | 74 | 1018.0 |
| 20260901175805 | 19 | 215 | 0.0 | 1.6 | 0.00 | 0.03 | 0.03 | 74 | 1018.0 |
| 20260901174802 | 19 | 215 | 0.0 | 0.0 | 0.00 | 0.03 | 0.03 | 75 | 1018.1 |
| 20260901173802 | 19 | 173 | 0.0 | 1.6 | 0.00 | 0.03 | 0.03 | 75 | 1018.0 |
| 20260901172808 | 19 | 198 | 0.0 | 1.6 | 0.00 | 0.03 | 0.03 | 75 | 1018.0 |
| 20260901172802 | 19 | 173 | 0.0 | 1.6 | 0.00 | 0.03 | 0.03 | 75 | 1018.0 |
| 20260901170758 | 19 | 207 | 0.0 | 1.6 | 0.00 | 0.03 | 0.03 | 74 | 1017.9 |
| 20260901165757 | 20 | 205 | 0.0 | 1.6 | 0.00 | 0.03 | 0.03 | 73 | 1017.7 |
| 20260901164757 | 21 | 212 | 0.0 | 1.6 | 0.00 | 0.03 | 0.03 | 72 | 1017.7 |
| 20260901163757 | 21 | 229 | 0.0 | 1.6 | 0.00 | 0.03 | 0.03 | 73 | 1017.8 |
| 20260901162759 | 21 | 123 | 0.0 | 1.6 | 0.00 | 0.03 | 0.03 | 74 | 1017.6 |
| 20260901161756 | 21 | 145 | 0.0 | 1.6 | 0.00 | 0.03 | 0.03 | 74 | 1017.5 |
| 20260901161256 | 21 | 142 | 0.0 | 1.6 | 0.00 | 0.03 | 0.03 | 74 | 1017.6 |
| 20260901160300 | 21 | 193 | 0.0 | 1.6 | 0.00 | 0.03 | 0.03 | 74 | 1017.9 |
| 20260901155259 | 21 | 165 | 0.0 | 1.6 | 0.00 | 0.03 | 0.03 | 73 | 1017.8 |
| 20260901153753 | 22 | 166 | 0.0 | 1.6 | 0.00 | 0.03 | 0.03 | 74 | 1017.8 |
| 20260901153253 | 22 | 135 | 0.0 | 1.6 | 0.00 | 0.03 | 0.03 | 74 | 1017.8 |
| 20260901151805 | 22 | 135 | 0.0 | 1.6 | 0.00 | 0.03 | 0.03 | 72 | 1017.8 |
| 20260901150752 | 21 | 155 | 0.0 | 1.6 | 0.03 | 0.03 | 0.03 | 72 | 1017.8 |
| 20260901145752 | 21 | 134 | 0.0 | 1.6 | 0.03 | 0.03 | 0.03 | 71 | 1018.0 |
| 20260901144755 | 21 | 67 | 0.0 | 0.0 | 0.03 | 0.03 | 0.03 | 69 | 1018.3 |
| 20260901144749 | 21 | 97 | 0.0 | 0.0 | 0.03 | 0.03 | 0.03 | 71 | 1018.3 |
| 20260901142749 | 21 | 67 | 0.0 | 1.6 | 0.03 | 0.03 | 0.03 | 67 | 1018.2 |
| 20260901141750 | 21 | 43 | 0.0 | 3.2 | 0.03 | 0.03 | 0.03 | 67 | 1018.3 |
| 20260901140747 | 21 | 36 | 0.0 | 0.0 | 0.00 | 0.00 | 0.00 | 65 | 1018.3 |
| 20260901135745 | 21 | 36 | 0.0 | 0.0 | 0.00 | 0.00 | 0.00 | 66 | 1018.0 |
| 20260901134747 | 20 | 35 | 0.0 | 0.0 | 0.00 | 0.00 | 0.00 | 67 | 1018.1 |
| 20260901133746 | 20 | 36 | 0.0 | 1.6 | 0.00 | 0.00 | 0.00 | 68 | 1018.1 |
| 20260901132745 | 20 | 30 | 0.0 | 1.6 | 0.00 | 0.00 | 0.00 | 68 | 1018.1 |
| 20260901131743 | 20 | 13 | 0.0 | 0.0 | 0.00 | 0.00 | 0.00 | 68 | 1018.1 |
| 20260901130744 | 20 | 13 | 0.0 | 1.6 | 0.00 | 0.00 | 0.00 | 69 | 1018.0 |
| 20260901125744 | 20 | 49 | 0.0 | 1.6 | 0.00 | 0.00 | 0.00 | 68 | 1018.1 |
| 20260901124744 | 20 | 41 | 0.0 | 1.6 | 0.00 | 0.00 | 0.00 | 69 | 1018.1 |
| 20260901124245 | 20 | 167 | 0.0 | 0.0 | 0.00 | 0.00 | 0.00 | 68 | 1018.1 |
| 20260901122742 | 20 | 167 | 0.0 | 0.0 | 0.00 | 0.00 | 0.00 | 67 | 1018.0 |
| 20260901121741 | 20 | 166 | 0.0 | 0.0 | 0.00 | 0.00 | 0.00 | 67 | 1017.9 |
| 20260901120743 | 20 | 166 | 0.0 | 0.0 | 0.00 | 0.00 | 0.00 | 67 | 1017.8 |
| 20260901115738 | 20 | 166 | 0.0 | 0.0 | 0.00 | 0.00 | 0.00 | 66 | 1018.0 |
| 20260901114737 | 19 | 166 | 0.0 | 0.0 | 0.00 | 0.00 | 0.00 | 66 | 1018.1 |
| 20260901113737 | 19 | 166 | 0.0 | 0.0 | 0.00 | 0.00 | 0.00 | 66 | 1018.0 |
| 20260901112738 | 19 | 167 | 0.0 | 0.0 | 0.00 | 0.00 | 0.00 | 66 | 1018.0 |
| 20260901111739 | 18 | 166 | 0.0 | 0.0 | 0.00 | 0.00 | 0.00 | 65 | 1017.9 |
| 20260901110735 | 18 | 166 | 0.0 | 0.0 | 0.00 | 0.00 | 0.00 | 65 | 1017.9 |
| 20260901110237 | 18 | 167 | 0.0 | 0.0 | 0.00 | 0.00 | 0.00 | 65 | 1017.7 |
| 20260901104736 | 18 | 166 | 0.0 | 1.6 | 0.00 | 0.00 | 0.00 | 65 | 1017.6 |
| 20260901104238 | 18 | 172 | 0.0 | 0.0 | 0.00 | 0.00 | 0.00 | 65 | 1017.6 |
| 20260901102733 | 18 | 172 | 0.0 | 0.0 | 0.00 | 0.00 | 0.00 | 65 | 1017.5 |
| 20260901102231 | 18 | 172 | 0.0 | 0.0 | 0.00 | 0.00 | 0.00 | 65 | 1017.4 |
| 20260901095725 | 18 | 172 | 0.0 | 0.0 | 0.00 | 0.00 | 0.00 | 66 | 1017.3 |
| 20260901094727 | 18 | 172 | 0.0 | 0.0 | 0.00 | 0.00 | 0.00 | 66 | 1017.3 |
| 20260901093740 | 18 | 172 | 0.0 | 0.0 | 0.00 | 0.00 | 0.00 | 67 | 1017.3 |
| 20260901092727 | 18 | 172 | 0.0 | 0.0 | 0.00 | 0.00 | 0.00 | 68 | 1017.4 |
| 20260901091725 | 18 | 172 | 0.0 | 0.0 | 0.00 | 0.00 | 0.00 | 68 | 1017.3 |
| 20260901090725 | 18 | 172 | 0.0 | 0.0 | 0.00 | 0.00 | 0.00 | 68 | 1017.4 |
| 20260901085724 | 18 | 172 | 0.0 | 0.0 | 0.00 | 0.00 | 0.00 | 68 | 1017.3 |
| 20260901084719 | 18 | 172 | 0.0 | 0.0 | 0.00 | 0.00 | 0.00 | 68 | 1017.7 |
| 20260901084222 | 18 | 172 | 0.0 | 0.0 | 0.00 | 0.00 | 0.00 | 69 | 1017.9 |
| 20260901082719 | 18 | 172 | 0.0 | 0.0 | 0.00 | 0.00 | 0.00 | 69 | 1018.1 |
| 20260901080719 | 18 | 172 | 0.0 | 0.0 | 0.00 | 0.00 | 0.00 | 69 | 1018.0 |
| 20260901075721 | 18 | 172 | 0.0 | 0.0 | 0.00 | 0.00 | 0.00 | 70 | 1017.9 |
| 20260901074721 | 18 | 172 | 0.0 | 0.0 | 0.00 | 0.00 | 0.00 | 70 | 1018.0 |
| 20260901073719 | 18 | 172 | 0.0 | 0.0 | 0.00 | 0.00 | 0.00 | 70 | 1018.1 |
| 20260901072719 | 18 | 172 | 0.0 | 0.0 | 0.00 | 0.00 | 0.00 | 70 | 1018.2 |
| 20260901071717 | 18 | 172 | 0.0 | 0.0 | 0.00 | 0.00 | 0.00 | 70 | 1018.1 |
| 20260901070716 | 18 | 172 | 0.0 | 0.0 | 0.00 | 0.00 | 0.00 | 70 | 1018.2 |
| 20260901065712 | 18 | 172 | 0.0 | 0.0 | 0.00 | 0.00 | 0.00 | 70 | 1018.2 |
| 20260901064728 | 18 | 172 | 0.0 | 0.0 | 0.00 | 0.00 | 0.00 | 70 | 1018.4 |
| 20260901063713 | 18 | 172 | 0.0 | 0.0 | 0.00 | 0.00 | 0.00 | 69 | 1018.6 |